#timestamp,LO_Frequency,Hit,StdDev 
1559970015.4,286047002.6,N
1559970035.2,286047001.5,N
1559970055.0,286047004.3,Y
1559970055.9,286047004.3,P
1559970075.8,286047002.2,N
1559970095.6,286047002.5,N
1559970115.5,286047001.5,N
1559970135.3,286047002.2,N
1559970155.1,286047001.6,N
1559970175.9,286047003.7,Y
1559970195.7,286046999.9,P
1559970215.5,286047001.1,N
1559970235.4,286046998.5,N
1559970255.2,286046998.6,N
1559970275.1,286046998.1,N
1559970276.0,286046998.1,N
1559970295.8,286047000.9,N
1559970315.6,286047000.6,N
1559970335.5,286046998.1,N
1559970355.3,286046998.3,N
1559970375.1,286046999.4,N
1559970395.9,286046998.8,N
1559970415.7,286046998.9,N
1559970435.6,286046996.5,N
1559970455.4,286046999.6,N
1559970475.2,286046999.2,N
1559970495.1,286046999.3,N
1559970496.0,286046999.3,N
1559970515.8,286046998.3,N
1559970535.6,286046999.4,N
1559970555.5,286046998.6,N
1559970575.3,286046999.0,N
1559970595.2,286046998.6,N
1559970615.9,286046996.5,Y
1559970635.7,286046998.8,P
1559970655.6,286046998.6,P
1559970675.4,286047001.0,P
1559970695.2,286046998.5,N
1559970715.1,286046998.1,N
1559970716.0,286046998.1,N
1559970735.8,286047000.3,N
1559970755.7,286046998.4,N
1559970775.5,286046998.9,N
1559970795.3,286046999.4,N
1559970815.2,286046998.7,N
1559970835.0,286046999.3,N
1559970835.9,286046999.3,N
1559970855.7,286046999.6,N
1559970875.6,286046998.3,N
1559970895.4,286046998.3,N
1559970915.3,286047001.2,N
1559970935.1,286047000.6,N
1559970936.0,286047000.6,N
1559970955.8,286047000.8,N
1559970975.7,286047000.8,N
1559970995.5,286047001.0,N
1559971015.3,286047000.4,N
1559971035.2,286047001.1,N
1559971055.0,286047000.7,N
1559971055.9,286047000.7,N
1559971075.8,286046999.3,N
1559971095.6,286046999.3,N
1559971115.4,286047001.0,N
1559971135.3,286046998.5,N
1559971155.1,286046996.9,N
1559971175.9,286046996.6,N
1559971195.7,286046999.2,N
1559971215.5,286046996.6,N
1559971235.4,286046999.3,N
1559971255.2,286046998.8,N
1559971275.0,286046999.3,N
1559971275.9,286046999.3,N
1559971295.8,286046998.4,N
1559971315.6,286046998.8,N
1559971335.5,286046998.8,N
1559971355.3,286046998.4,N
1559971375.1,286046998.2,N
1559971395.9,286046998.9,N
1559971415.7,286046997.2,N
1559971435.5,286046996.9,N
1559971455.4,286046999.3,N
1559971475.2,286046999.5,N
1559971495.1,286046996.8,N
1559971496.0,286046996.8,N
1559971515.8,286046997.2,N
1559971535.6,286046997.0,N
1559971555.5,286046998.3,N
1559971575.3,286046998.9,N
1559971595.1,286046999.1,N
1559971615.9,286046996.7,N
1559971635.7,286046997.7,N
1559971655.6,286046999.5,N
1559971675.4,286046997.2,N
1559971695.2,286046995.4,Y
1559971715.1,286046999.2,P
1559971716.0,286046999.2,N
1559971735.8,286046999.6,N
1559971755.6,286046998.7,N
1559971775.5,286046998.2,Y
1559971795.3,286047000.7,P
1559971815.2,286046999.9,N
1559971835.9,286046999.8,N
1559971855.7,286047002.6,Y
1559971875.6,286047002.3,P
1559971895.4,286046999.7,N
1559971915.3,286046999.8,N
1559971935.1,286047002.2,N
1559971936.0,286047002.2,N
1559971955.8,286047002.6,N
1559971975.7,286046999.8,N
1559971995.5,286047000.6,N
1559972015.3,286047000.6,N
1559972035.2,286047000.1,N
1559972055.0,286047000.9,N
1559972055.9,286047000.9,N
1559972075.8,286047000.6,N
1559972095.6,286046998.1,N
1559972115.4,286047000.9,N
1559972135.3,286046999.8,N
1559972155.1,286047001.7,N
1559972175.8,286047001.8,N
1559972195.7,286047003.7,Y
1559972215.5,286047004.0,P
1559972235.4,286047003.5,N
1559972255.2,286047003.6,N
1559972275.0,286047004.1,Y
1559972275.9,286047004.1,P
1559972295.8,286047000.5,N
1559972315.6,286046998.7,N
1559972335.5,286047000.5,N
1559972355.3,286046998.3,N
1559972375.1,286047000.3,N
1559972395.9,286046998.9,N
1559972415.7,286047000.7,N
1559972435.5,286046998.1,N
1559972455.4,286046998.3,N
1559972475.2,286047001.1,N
1559972495.1,286047001.0,N
1559972496.0,286047001.0,N
1559972515.8,286046998.6,N
1559972535.6,286046998.3,N
1559972555.5,286046998.2,N
1559972575.3,286047000.5,N
1559972595.1,286046998.4,N
1559972615.9,286046998.8,N
1559972635.7,286046998.1,N
1559972655.6,286046998.5,N
1559972675.4,286046998.1,N
1559972695.2,286046999.9,N
1559972715.1,286046998.7,N
1559972716.0,286046998.7,N
1559972735.8,286046998.5,N
1559972755.6,286046999.0,N
1559972775.5,286046999.5,N
1559972795.3,286046999.5,N
1559972815.2,286046996.6,N
1559972835.9,286046998.6,N
1559972855.7,286046998.4,N
1559972875.6,286046999.5,N
1559972895.4,286046998.6,N
1559972915.2,286047001.1,N
1559972935.1,286046999.9,N
1559972936.0,286046999.9,N
1559972955.8,286047000.3,N
1559972975.7,286047002.8,N
1559972995.5,286046999.8,N
1559973015.3,286047000.6,N
1559973035.2,286047000.6,N
1559973055.0,286046998.2,N
1559973055.9,286046998.2,N
1559973075.7,286047000.7,N
1559973095.6,286047000.6,N
1559973115.4,286047002.3,N
1559973135.3,286047001.0,N
1559973155.1,286047002.2,N
1559973156.0,286047002.2,N
1559973175.8,286047002.0,N
1559973195.7,286047002.6,N
1559973215.5,286047003.8,N
1559973235.4,286047004.1,N
1559973255.2,286047001.4,N
1559973275.0,286047001.8,N
1559973275.9,286047001.8,N
1559973295.8,286047000.5,N
1559973315.6,286047001.0,N
1559973335.4,286047002.4,N
1559973355.3,286047001.5,N
1559973375.1,286047002.3,N
1559973395.9,286046999.8,N
1559973415.7,286047002.4,N
1559973435.5,286047000.2,N
1559973455.4,286047000.5,N
1559973475.2,286047001.2,N
1559973495.0,286046998.1,N
1559973496.0,286046998.1,N
1559973515.8,286047000.5,N
1559973535.6,286047001.3,N
1559973555.5,286047002.0,N
1559973575.3,286046999.9,N
1559973595.1,286047001.2,N
